Regional Weather Roundup
Issued by NWS Grand Forks, ND

Home | Current Version | Previous Version | Text Only | Print | Product List | Glossary Off
Versions: 1 2 3 4 5 6 7 8 9 10 11 12 13 14 15 16 17 18 19 20 21 22 23 24 25 26 27 28 29 30 31 32 33 34 35 36 37 38 39 40 41 42 43 44 45 46 47 48 49 50

000
ASUS43 KFGF 281810
RWRFGF
PRAIRIE TO PINES  WEATHER ROUNDUP
NATIONAL WEATHER SERVICE EASTERN NORTH DAKOTA/GRAND FORKS ND
100 PM CDT THU JUL 28 2016

 **SATELLITE DATA USED TO AUGMENT SKY COVER AT AUTOMATED STATIONS**
 *****  WEATHER ACROSS EASTERN NORTH DAKOTA  *****

CITY           SKY/WX    TMP DP  RH WIND       PRES   REMARKS
GRAND FORKS    MOSUNNY   74  57  55 N10       30.11F
6HR MIN TEMP:  58; 6HR MAX TEMP:  74;

GRAND FRKS AFB NOT AVBL
GRAND FRKS NWS   N/A     73 N/A N/A N14         N/A
DEVILS LAKE    MOSUNNY   70  58  65 VRB5      30.16F
6HR MIN TEMP:  57; 6HR MAX TEMP:  70;

FARGO          SUNNY     77  61  57 N5        30.08F
WAHPETON ARPT  CLOUDY    77  55  47 SE6       30.09F
$$

 ***** WEATHER ACROSS CENTRAL AND WESTERN NORTH DAKOTA  *****

CITY           SKY/WX    TMP DP  RH WIND       PRES   REMARKS
BISMARCK       CLOUDY    71  56  58 E7        30.15S
6HR MIN TEMP:  63; 6HR MAX TEMP:  72;

MINOT          PTSUNNY   74  52  46 N9        30.16F
6HR MIN TEMP:  62; 6HR MAX TEMP:  76;

JAMESTOWN      CLOUDY    71  63  75 VRB6      30.12S
6HR MIN TEMP:  57; 6HR MAX TEMP:  72;

MINOT AFB      NOT AVBL
GARRISON         N/A     67  56  67 NE5       30.17R
WILLISTON      MOSUNNY   76  53  44 NE10      30.17S
6HR MIN TEMP:  60; 6HR MAX TEMP:  76;

DICKINSON      CLOUDY    62  59  90 E12       30.16S
6HR MIN TEMP:  58; 6HR MAX TEMP:  63; 6HR PCP:  0.31;

HETTINGER      CLOUDY    72  59  63 SE8       30.15F
6HR MIN TEMP:  59; 6HR MAX TEMP:  72;

$$

 *****  OTHER AIRPORT OBSERVATIONS IN OUR AREA  *****

CITY           SKY/WX    TMP DP  RH WIND       PRES   REMARKS
WALHALLA       NOT AVBL
GRAFTON AIRPOR FAIR      70  55  60 N8G14     30.15F
VALLEY CITY AR MOCLDY    72  66  83 NE7       30.13S
CANDO          NOT AVBL
CAVALIER APRT  NOT AVBL
GWINNER        FAIR      73  63  68 NE6       30.11R
SHEYENNE NWR     N/A     78  58  50 SE6       29.95S
ROLLA          NOT AVBL
 ***** THE ABOVE OBSERVATIONS ARE NON NWS ARE NOT QUALITY
       CONTROLLED AND MAY MIS-REPORT RAIN FOR SNOW...
$$

  *****  WEATHER ACROSS NORTHERN MINNESOTA  *****

CITY           SKY/WX    TMP DP  RH WIND       PRES   REMARKS
FLAG ISLAND    PTSUNNY   66  54  63 N6        30.13F
WARROAD        SUNNY     70  57  64 E8        30.15S
ROSEAU         MOSUNNY   70  57  64 N6        30.14S
HALLOCK        MOSUNNY   70  54  56 N6        30.14S
THF RVR FALLS  MOSUNNY   71  58  63 VRB5      30.14S
6HR MIN TEMP:  58; 6HR MAX TEMP:  71;

BAUDETTE       MOSUNNY   73  57  57 N8        30.12F
6HR MIN TEMP:  56; 6HR MAX TEMP:  75;

WASKISH        SUNNY     73  57  56 W7        30.12S
CROOKSTON      SUNNY     73  59  60 N7        30.12F
STEPHEN NDAWN    N/A     72  55  56 N5          N/A
GREENBUSH NDAW   N/A     72  55  56 SE2         N/A
$$
  *****  WEATHER ACROSS CENTRAL AND WEST MINNESOTA  *****

CITY           SKY/WX    TMP DP  RH WIND       PRES   REMARKS
FOSSTON        SUNNY     77  61  57 CALM      30.12S
BEMIDJI        PTSUNNY   73  55  53 N5        30.11F
PARK RAPIDS    MOSUNNY   78  55  44 N8        30.10S
6HR MIN TEMP:  61; 6HR MAX TEMP:  78;

ELBOW LAKE     FAIR      75  60  58 E5        30.10S
WADENA         CLOUDY    73  59  60 CALM      30.10S
DETROIT LAKES  LGT RAIN  68  63  83 W7        30.12S
MOORHEAD       MOSUNNY   75  63  64 N5        30.09F
FERGUS FALLS   CLOUDY    75  57  53 E5        30.09F
MORRIS MN      CLOUDY    75  57  53 E7        30.08S
STAPLES        CLOUDY    72  55  56 SE5       30.10F
$$
  *****  WEATHER ELSEWHERE ACROSS MINNESOTA  *****

CITY           SKY/WX    TMP DP  RH WIND       PRES   REMARKS
DULUTH         CLOUDY    72  53  51 E12G20    30.11S
6HR MIN TEMP:  59; 6HR MAX TEMP:  73;

INTRNTL FALLS  SUNNY     74  55  51 N7        30.12S
6HR MIN TEMP:  60; 6HR MAX TEMP:  74;

ELY            MOSUNNY   72  52  49 CALM      30.12S
CLOQUET        CLOUDY    70  52  52 E7        30.11S
WHEATON        NOT AVBL
BRAINERD       CLOUDY    72  55  55 NE6       30.11S
6HR MIN TEMP:  61; 6HR MAX TEMP:  72;

HIBBING        MOSUNNY   73  53  49 NE6       30.10F
6HR MIN TEMP:  54; 6HR MAX TEMP:  74;

ALEXANDRIA     CLOUDY    74  57  55 E10       30.11S
6HR MIN TEMP:  63; 6HR MAX TEMP:  74;

SAINT CLOUD    CLOUDY    71  57  61 E8        30.07F
6HR MIN TEMP:  59; 6HR MAX TEMP:  73;

MINNEAPOLIS    CLOUDY    72  62  71 N9        30.03S
6HR MIN TEMP:  65; 6HR MAX TEMP:  72;

$$

  *****  WEATHER ACROSS SOUTH DAKOTA  *****

CITY           SKY/WX    TMP DP  RH WIND       PRES   REMARKS
SIOUX FALLS    PTSUNNY   76  63  64 VRB5      30.06F
6HR MIN TEMP:  63; 6HR MAX TEMP:  76;

BROOKINGS      MOSUNNY   71  61  70 N6        30.08S
WATERTOWN      SUNNY     76  57  51 E8        30.09R
6HR MIN TEMP:  61; 6HR MAX TEMP:  77;

HURON          SUNNY     77  61  57 N9        30.07F
6HR MIN TEMP:  60; 6HR MAX TEMP:  77;

SISSETON         N/A     76  61  59 NE5       30.08S
ABERDEEN       PTSUNNY   74  63  68 S6        30.10S
6HR MIN TEMP:  61; 6HR MAX TEMP:  75;

MITCHELL       SUNNY     79  59  50 N10       30.07F
PIERRE         MOSUNNY   80  57  45 SE13      30.08F
6HR MIN TEMP:  62; 6HR MAX TEMP:  80;

MOBRIDGE       CLOUDY    74  54  49 E9        30.11S
RAPID CITY     CLOUDY    70  58  65 N6        30.12F
6HR MIN TEMP:  59; 6HR MAX TEMP:  70; 6HR PCP: TRACE;

$$

  *****  SOME WEATHER IN NEARBY STATES *****

CITY           SKY/WX    TMP DP  RH WIND       PRES   REMARKS
GLASGOW MT     PTSUNNY   74  58  57 VRB3      30.17S
6HR MIN TEMP:  56; 6HR MAX TEMP:  74;

GREAT FALLS MT SUNNY     76  49  38 NE6       30.19S
6HR MIN TEMP:  54; 6HR MAX TEMP:  76;

CHEYENNE WY    PTSUNNY   67  55  65 NE17G30   30.28F
6HR MIN TEMP:  57; 6HR MAX TEMP:  70; 6HR PCP: TRACE;

SCOTTSBLUFF NE CLOUDY    67  50  54 SE15      30.18F
6HR MIN TEMP:  59; 6HR MAX TEMP:  67; 6HR PCP:  0.33;

OMAHA NE       MOSUNNY   83  65  54 N9        30.01F
6HR MIN TEMP:  70; 6HR MAX TEMP:  83;

DES MOINES IA  MOSUNNY   77  65  66 NE10      29.99S
6HR MIN TEMP:  71; 6HR MAX TEMP:  78;

DAVENPORT IA   MOSUNNY   80  71  74 NW13G21   29.92R
6HR MIN TEMP:  67; 6HR MAX TEMP:  83;

CHICAGO IL     TSTM      74  71  91 S3        29.88S FOG
6HR MIN TEMP:  74; 6HR MAX TEMP:  84; 6HR PCP:  0.32;

EAU CLAIRE WI  LGT RAIN  66  65  96 NE8       30.01S FOG
6HR MIN TEMP:  66; 6HR MAX TEMP:  68; 6HR PCP:  0.01;

LA CROSSE WI   LGT RAIN  68  65  90 N9        29.95R FOG
6HR MIN TEMP:  68; 6HR MAX TEMP:  70; 6HR PCP:  0.05;

$$

  *****  SOME NATIONAL WEATHER *****

CITY           SKY/WX    TMP DP  RH WIND       PRES   REMARKS
LA GUARDIA NY  MOSUNNY   91  63  39 SE10      29.85F HX  92
6HR MIN TEMP:  79; 6HR MAX TEMP:  93;

RALEIGH NC     MOSUNNY   95  74  50 SW10      29.90F HX 105
6HR MIN TEMP:  78; 6HR MAX TEMP:  95;

ATLANTA GA     PTSUNNY   85  70  60 SW13G18   30.03F
6HR MIN TEMP:  75; 6HR MAX TEMP:  87;

NEW ORLEANS LA PTSUNNY   93  75  55 S10       30.04F HX 104
6HR MIN TEMP:  80; 6HR MAX TEMP:  93;

OKLAHOMA CITY  MOSUNNY   91  70  49 CALM      29.98F HX  96
6HR MIN TEMP:  72; 6HR MAX TEMP:  91;

ALBUQUERQUE NM MOSUNNY   86  50  28 CALM      30.23F
6HR MIN TEMP:  70; 6HR MAX TEMP:  88;

SALT LAKE CITY MOSUNNY   95  34  11 NW6       30.10S HX  90
6HR MIN TEMP:  74; 6HR MAX TEMP:  95;

LOS ANGELES CA SUNNY     77  65  66 W12       29.92R
6HR MIN TEMP:  69; 6HR MC1F1C2F2C3F3C4F4C5F5C6F6C7F7C8F8C9F9CaFaCbFbCcFcCd!



USA.gov is the U.S. government's official web portal to all federal, state and local government web resources and services.